Wind_Speed
28 25 23 22 20 19 16 14 10 9 8 8 7 6 6 9 7 4 7 7 9 10 11 7 7 11 9 6 6 3 9 9 8 12 20 16 22 15 17 20 20 20 17 18 23
30 29 28 26 25 23 21 18 14 12 11 10 10 8 8 10 10 10 9 9 8 11 14 10 5 8 12 7 8 8 8 13 11 19 19 18 20 19 23 20 20 19 17 20 22
34 33 32 29 27 27 26 23 19 15 15 13 12 11 11 11 12 10 11 10 10 11 14 15 9 10 10 7 10 4 9 12 12 13 17 21 22 18 24 22 21 24 19 20 22
36 36 34 33 31 31 30 28 25 19 18 17 16 16 14 14 14 13 13 12 11 13 15 17 14 11 11 10 12 8 7 4 1 11 15 18 17 20 21 24 19 19 19 19 19
38 38 37 36 34 33 32 32 30 25 20 20 18 19 18 16 17 16 17 15 11 15 17 19 19 16 19 16 15 11 13 10 8 5 10 10 12 18 21 24 25 21 19 19 21
40 40 40 39 36 36 35 35 34 30 25 21 21 21 22 19 17 20 19 16 14 15 18 22 23 17 17 20 18 17 17 13 12 3 5 3 5 12 17 17 20 22 20 20 21
41 40 40 40 40 37 36 36 36 34 30 25 23 23 24 21 17 21 21 19 17 15 18 22 22 22 21 20 19 23 16 11 5 6 3 3 3 9 12 12 15 21 21 21 23
43 43 41 42 42 40 38 38 39 38 34 29 23 26 26 21 22 24 19 21 22 19 20 24 26 22 25 20 22 24 25 16 9 8 8 8 10 8 8 7 11 12 15 22 22
44 43 43 42 42 41 41 40 40 37 35 33 28 25 26 24 24 24 20 24 23 21 21 20 22 23 26 22 22 22 15 13 12 13 13 13 12 13 10 9 7 10 16 20 18
45 45 43 43 42 41 45 44 44 42 38 35 30 26 23 24 22 21 23 26 24 25 24 23 18 19 24 26 25 21 20 17 17 18 20 20 17 17 9 3 6 7 16 14 21
46 45 45 43 42 40 43 45 46 43 40 37 33 27 25 26 24 22 21 26 25 23 25 26 18 16 23 30 29 25 22 18 13 22 27 25 25 22 23 11 7 8 9 18 24
48 47 46 45 43 41 42 43 44 43 40 37 33 30 24 27 23 25 23 19 25 25 28 25 18 20 23 34 36 27 29 18 16 8 11 22 14 19 24 17 16 12 12 17 22
49 49 48 47 45 44 44 42 41 39 39 35 36 31 23 31 23 26 27 21 22 26 26 23 24 25 24 34 36 35 29 19 13 11 11 19 21 20 19 17 13 11 11 17 18
43 49 48 48 47 46 44 42 39 37 39 33 32 29 26 30 25 25 26 26 24 21 26 24 25 24 26 33 34 30 26 25 19 17 19 21 20 20 19 18 14 10 7 8 16
36 41 47 46 47 47 44 42 39 39 39 30 29 30 28 31 18 27 26 28 24 27 25 19 21 24 26 27 38 36 26 24 21 20 21 17 22 16 19 20 16 17 14 6 12
36 36 42 43 45 47 45 42 41 40 39 24 23 24 27 26 23 31 29 28 26 28 30 21 24 26 24 28 36 37 32 28 23 24 26 22 25 19 22 25 27 22 19 12 11
35 33 37 36 42 45 44 43 43 42 34 27 23 25 21 24 22 28 32 30 27 28 26 27 24 23 25 28 33 30 27 27 27 26 27 26 27 27 27 19 13 16 14 16 13
30 31 38 38 41 42 42 44 46 42 35 25 29 27 22 24 26 28 29 30 27 25 28 28 27 22 24 27 29 27 27 25 27 35 34 31 29 30 21 14 14 11 16 17 22
30 30 33 37 36 38 40 44 45 43 35 33 25 29 27 27 25 30 30 25 21 24 25 30 24 21 26 27 30 26 21 20 22 23 27 28 26 24 16 15 13 12 16 22 26
31 30 34 34 35 37 39 41 44 41 35 32 34 33 30 26 27 29 26 21 22 19 21 24 27 22 25 30 23 25 18 20 21 21 22 23 26 24 22 19 18 20 22 26 30
30 30 29 31 33 37 36 38 41 36 36 36 38 36 35 28 28 25 20 25 26 23 18 24 25 24 25 28 26 22 18 16 16 23 23 22 24 20 16 22 21 23 26 27 29
28 26 26 28 31 34 35 38 39 34 37 37 41 43 39 34 30 26 27 30 29 28 22 22 23 28 29 27 21 24 24 20 18 16 26 24 23 21 16 18 20 25 26 25 28
27 26 26 24 27 31 34 35 37 36 38 39 45 47 47 41 38 31 28 28 24 25 24 25 26 27 33 32 23 27 28 27 18 19 21 30 27 24 23 22 18 22 18 22 25
34 31 28 25 28 28 30 30 30 32 39 40 46 50 47 47 42 37 34 32 29 25 29 27 26 26 30 33 28 23 28 30 23 23 26 29 28 25 27 28 21 20 16 19 24
12 37 33 31 30 28 27 27 26 30 38 44 48 49 47 51 45 45 39 35 29 25 30 31 27 28 25 35 35 28 27 24 30 30 26 31 32 30 26 26 24 24 26 26 28
8 16 37 42 37 30 28 26 25 30 39 46 49 49 46 50 50 45 46 42 36 33 30 34 35 32 29 32 42 35 34 31 29 34 36 33 30 31 28 28 29 29 25 24 20
16 9 9 12 35 34 31 31 30 31 35 42 46 47 47 43 48 50 49 47 44 36 36 33 33 32 33 33 35 36 37 35 38 38 38 38 34 26 31 30 25 21 22 18 19
Wind_Direction
209 214 223 233 240 249 250 253 247 254 235 225 213 196 210 222 222 211 250 239 236 226 222 179 160 119 92 106 102 121 52 65 39 51 32 53 39 8 14 31 26 44 43 37 41
216 214 220 230 241 248 251 249 243 245 240 229 227 209 205 215 222 224 250 252 251 245 237 214 173 151 130 128 243 236 71 65 66 29 42 58 22 35 20 20 20 35 39 32 30
219 220 221 227 238 246 250 249 247 236 239 234 230 222 213 213 220 230 254 260 264 254 245 240 193 176 150 137 207 204 77 60 38 25 57 43 43 27 23 10 10 8 20 15 18
226 224 224 226 233 243 253 252 253 240 232 233 231 226 215 214 218 229 245 257 255 255 244 245 225 194 177 170 201 161 141 199 289 57 65 45 32 26 26 10 356 6 360 8 9
234 231 228 228 232 238 246 255 255 249 236 237 231 231 223 215 219 222 236 247 247 249 246 239 236 213 204 190 201 185 175 188 231 57 59 31 44 32 41 26 17 2 354 357 355
240 238 234 232 233 237 243 250 256 253 249 241 240 233 229 217 220 232 232 243 253 246 242 236 237 245 217 205 213 209 193 208 224 203 83 28 54 56 33 19 1 349 350 354 353
242 242 241 236 234 237 240 244 251 253 254 245 241 239 234 220 221 235 229 232 242 248 243 240 243 245 249 208 195 195 216 227 254 218 164 293 348 54 359 357 353 339 342 354 348
240 241 242 241 237 235 238 242 246 252 255 254 241 241 240 223 217 235 228 233 236 242 234 232 237 240 242 240 226 228 240 248 259 313 310 315 333 6 1 320 349 332 347 2 359
240 240 241 241 241 236 236 238 243 248 251 253 247 240 245 234 223 236 238 232 237 244 250 245 243 241 236 229 235 243 244 255 265 263 281 298 305 318 306 287 29 32 28 347 315
236 240 241 242 242 241 240 241 244 246 249 251 249 245 242 241 231 229 240 238 234 235 246 249 243 249 238 216 220 223 224 235 248 266 263 264 269 270 266 311 357 34 12 5 0
234 236 239 241 242 243 243 242 245 247 248 247 247 246 239 238 227 226 225 242 237 238 241 246 245 242 240 209 215 219 228 262 247 255 264 255 265 265 273 305 2 312 290 321 332
232 235 237 239 240 241 243 245 247 247 248 249 249 245 242 238 227 228 223 233 235 233 234 241 244 229 227 215 219 228 242 244 246 274 289 249 241 245 263 275 301 313 351 319 319
233 232 234 237 238 239 241 244 246 249 247 246 250 248 237 242 223 227 225 222 238 232 233 233 229 228 218 216 221 232 236 227 218 195 206 213 241 229 239 261 279 282 342 326 312
238 233 235 235 236 239 239 240 242 246 247 240 245 245 239 243 226 220 229 226 234 231 233 223 234 228 219 211 215 227 237 237 231 206 189 216 224 217 234 245 264 293 322 311 309
240 236 233 237 235 235 236 237 239 242 244 243 239 242 239 241 209 215 223 224 226 231 232 216 226 232 226 214 212 229 229 243 219 219 206 222 240 231 254 264 280 276 290 291 298
240 240 234 236 238 233 234 235 235 237 238 239 237 236 237 233 231 220 227 225 221 229 231 225 225 228 230 221 215 225 231 233 229 220 243 253 261 262 277 286 289 272 292 294 287
238 238 233 235 236 234 233 232 232 231 229 229 229 229 226 224 216 221 234 230 228 234 235 229 235 236 233 227 214 219 222 239 241 242 253 251 258 266 274 281 294 284 303 303 273
237 236 230 233 234 233 232 231 228 228 226 223 225 229 220 215 216 214 226 233 233 237 233 231 224 228 234 236 221 223 232 246 252 246 246 253 258 260 261 305 287 293 281 288 292
235 232 232 231 233 231 230 229 225 229 224 217 215 220 219 215 216 216 220 227 229 235 239 233 223 231 225 234 240 236 231 240 250 256 257 251 245 244 269 297 294 298 314 319 305
233 233 231 230 231 227 227 228 227 229 225 213 213 211 218 217 212 215 215 206 208 222 230 229 220 229 217 223 226 229 228 237 233 247 254 243 240 254 271 290 296 292 298 310 320
227 229 227 227 229 226 226 229 227 223 224 212 212 214 216 207 210 200 188 201 200 196 200 213 217 213 218 221 216 227 223 237 241 241 247 244 246 270 270 272 293 296 308 321 312
222 225 225 224 225 224 219 221 224 216 218 212 212 213 210 208 213 214 215 207 212 213 203 206 213 207 207 203 219 220 215 223 232 244 247 254 260 273 271 282 295 296 303 304 310
224 226 224 223 225 222 221 222 222 213 213 208 212 216 211 211 216 212 217 226 240 220 222 212 217 213 203 205 216 217 219 232 239 250 250 255 264 268 275 281 294 293 303 309 310
231 220 221 222 226 223 223 220 220 211 210 211 215 219 212 210 215 216 212 227 234 234 224 220 228 229 216 208 219 228 228 240 235 248 250 252 256 260 267 270 276 285 295 308 318
267 223 224 224 228 221 219 216 209 205 205 216 220 223 218 214 212 216 213 223 232 232 236 238 238 230 224 216 218 221 223 242 240 248 255 260 258 257 262 268 279 281 284 293 309
242 206 219 232 222 221 216 211 203 203 205 216 224 228 224 219 215 217 215 219 229 230 232 238 243 235 233 225 222 224 227 236 247 249 251 260 265 264 263 267 272 277 290 299 305
218 218 231 214 208 214 214 213 207 207 213 220 230 234 235 227 223 220 218 221 225 231 230 231 237 235 237 241 238 236 236 243 248 251 256 259 258 272 269 272 268 280 284 298 296
Height
5913 5915 5916 5917 5919 5920 5921 5921 5923 5923 5924 5924 5925 5925 5926 5927 5928 5929 5929 5930 5929 5929 5929 5932 5932 5933 5935 5935 5934 5932 5931 5932 5931 5930 5931 5934 5931 5930 5928 5925 5925 5921 5919 5917 5912
5908 5910 5913 5914 5915 5916 5918 5919 5920 5921 5922 5923 5924 5924 5925 5926 5927 5927 5928 5927 5929 5929 5928 5930 5933 5934 5934 5936 5937 5934 5931 5933 5932 5934 5936 5935 5932 5930 5930 5930 5929 5925 5923 5920 5915
5903 5905 5908 5910 5912 5913 5914 5916 5917 5919 5920 5921 5922 5924 5924 5924 5925 5926 5926 5926 5928 5928 5928 5929 5932 5933 5934 5934 5935 5934 5932 5932 5934 5935 5936 5934 5932 5933 5932 5932 5930 5928 5924 5920 5916
5896 5899 5902 5905 5908 5909 5910 5912 5914 5915 5917 5919 5920 5921 5923 5923 5925 5924 5924 5925 5926 5926 5927 5927 5931 5932 5934 5934 5935 5933 5931 5929 5932 5934 5934 5935 5935 5933 5933 5933 5930 5929 5926 5921 5916
5891 5893 5896 5899 5902 5905 5906 5907 5909 5912 5913 5915 5916 5918 5920 5920 5920 5921 5921 5923 5925 5925 5925 5926 5927 5930 5930 5932 5934 5933 5931 5928 5929 5931 5933 5935 5936 5934 5935 5934 5932 5929 5926 5923 5919
5885 5888 5890 5893 5896 5899 5901 5902 5904 5906 5908 5911 5912 5914 5916 5917 5918 5918 5919 5922 5923 5923 5923 5924 5925 5928 5931 5932 5934 5934 5931 5929 5929 5931 5933 5934 5935 5932 5934 5934 5931 5928 5925 5923 5921
5878 5882 5884 5887 5890 5893 5896 5898 5899 5901 5903 5906 5908 5909 5911 5914 5916 5915 5916 5918 5919 5920 5921 5922 5924 5925 5927 5931 5933 5933 5931 5931 5929 5930 5931 5933 5934 5933 5935 5933 5931 5929 5927 5923 5919
5871 5874 5878 5881 5884 5887 5889 5892 5894 5895 5898 5899 5903 5904 5905 5911 5911 5909 5914 5915 5915 5917 5917 5919 5919 5923 5923 5928 5930 5932 5931 5930 5929 5929 5929 5931 5930 5931 5933 5934 5932 5930 5928 5924 5920
5863 5866 5870 5874 5878 5880 5883 5885 5887 5890 5892 5893 5897 5899 5901 5904 5908 5909 5910 5911 5912 5914 5914 5916 5917 5919 5921 5925 5927 5927 5928 5927 5927 5927 5925 5926 5927 5927 5929 5933 5933 5930 5929 5926 5921
5855 5859 5862 5866 5870 5873 5875 5879 5880 5882 5886 5887 5890 5894 5898 5899 5902 5905 5906 5906 5909 5911 5912 5912 5915 5918 5920 5921 5924 5925 5926 5926 5924 5924 5922 5924 5928 5927 5929 5932 5932 5930 5928 5928 5925
5847 5851 5854 5858 5862 5866 5868 5871 5874 5876 5880 5882 5885 5888 5890 5892 5896 5899 5902 5904 5905 5907 5908 5908 5912 5915 5916 5918 5919 5922 5924 5927 5928 5925 5923 5923 5927 5925 5925 5928 5929 5929 5926 5926 5923
5838 5842 5846 5850 5854 5858 5860 5863 5867 5871 5876 5878 5880 5883 5886 5886 5891 5893 5897 5900 5902 5904 5903 5905 5910 5910 5911 5914 5915 5916 5920 5925 5926 5924 5923 5923 5927 5926 5925 5926 5926 5928 5924 5924 5923
5828 5833 5837 5842 5846 5850 5852 5858 5861 5865 5868 5874 5874 5879 5882 5881 5887 5889 5892 5894 5897 5899 5901 5903 5903 5904 5907 5908 5912 5914 5917 5922 5922 5922 5922 5924 5924 5925 5926 5926 5927 5925 5922 5922 5921
5818 5823 5828 5832 5839 5841 5847 5852 5856 5859 5859 5868 5869 5873 5877 5876 5881 5884 5886 5890 5893 5895 5895 5899 5898 5901 5902 5904 5908 5910 5914 5916 5917 5918 5919 5919 5920 5921 5922 5922 5923 5922 5921 5920 5920
5810 5814 5819 5823 5829 5834 5841 5845 5849 5852 5853 5864 5864 5865 5869 5871 5881 5879 5880 5883 5888 5890 5892 5897 5894 5895 5897 5903 5903 5907 5910 5911 5914 5913 5914 5916 5916 5919 5918 5918 5918 5918 5918 5919 5918
5801 5806 5810 5815 5819 5827 5832 5837 5841 5846 5848 5855 5858 5859 5862 5867 5872 5873 5875 5879 5882 5883 5887 5891 5891 5891 5896 5898 5900 5903 5905 5906 5909 5910 5909 5912 5911 5913 5913 5914 5913 5913 5914 5915 5915
5793 5797 5801 5806 5811 5818 5823 5828 5832 5836 5845 5850 5852 5853 5857 5860 5864 5866 5868 5873 5877 5880 5884 5887 5888 5890 5893 5895 5897 5898 5900 5901 5904 5905 5905 5908 5908 5908 5908 5909 5909 5910 5911 5910 5910
5784 5789 5793 5798 5804 5809 5814 5819 5824 5830 5838 5843 5847 5850 5853 5854 5857 5859 5862 5865 5871 5875 5878 5881 5884 5887 5889 5891 5893 5894 5896 5899 5900 5900 5902 5904 5902 5904 5904 5905 5905 5906 5905 5905 5903
5777 5781 5786 5791 5797 5801 5805 5810 5818 5823 5831 5836 5841 5844 5847 5850 5854 5855 5857 5861 5867 5870 5872 5875 5881 5881 5883 5886 5888 5891 5893 5895 5894 5895 5896 5899 5899 5900 5901 5901 5903 5902 5901 5902 5900
5770 5774 5779 5785 5788 5792 5797 5804 5809 5817 5824 5830 5833 5837 5840 5845 5848 5850 5852 5857 5859 5863 5865 5869 5874 5875 5879 5881 5884 5886 5889 5889 5889 5890 5892 5893 5895 5896 5897 5897 5898 5898 5898 5899 5895
5763 5768 5772 5776 5781 5785 5791 5797 5802 5811 5815 5821 5826 5831 5835 5839 5843 5846 5849 5850 5853 5856 5858 5862 5868 5872 5874 5876 5881 5882 5885 5885 5886 5886 5887 5888 5891 5890 5895 5896 5895 5894 5893 5893 5888
5757 5762 5765 5769 5774 5779 5784 5788 5794 5801 5806 5813 5818 5822 5827 5834 5837 5842 5843 5846 5848 5853 5855 5858 5861 5865 5870 5874 5875 5877 5879 5880 5879 5883 5884 5885 5888 5886 5890 5891 5892 5891 5890 5888 5886
5752 5756 5760 5764 5768 5771 5776 5780 5785 5793 5798 5805 5808 5812 5820 5827 5833 5837 5839 5842 5844 5850 5852 5854 5855 5860 5864 5869 5870 5872 5874 5876 5876 5878 5879 5881 5884 5885 5886 5886 5887 5887 5888 5885 5883
5747 5750 5754 5759 5762 5767 5771 5775 5780 5787 5792 5797 5801 5804 5813 5819 5826 5832 5835 5837 5840 5845 5848 5850 5852 5855 5860 5865 5867 5869 5871 5871 5872 5874 5875 5876 5877 5880 5882 5883 5884 5884 5883 5881 5880
5740 5741 5750 5754 5757 5762 5767 5772 5776 5781 5786 5790 5794 5798 5806 5813 5819 5825 5831 5832 5835 5839 5842 5846 5848 5851 5855 5858 5860 5864 5867 5867 5869 5869 5870 5870 5872 5875 5878 5880 5880 5879 5880 5881 5878
5739 5738 5741 5745 5752 5758 5763 5769 5772 5776 5781 5783 5787 5791 5799 5806 5813 5818 5824 5827 5829 5834 5838 5840 5843 5847 5850 5852 5855 5859 5862 5864 5864 5864 5865 5866 5868 5869 5873 5874 5874 5876 5876 5875 5876
5737 5738 5739 5741 5744 5752 5759 5763 5766 5770 5775 5778 5781 5786 5792 5801 5806 5811 5817 5822 5824 5827 5831 5835 5838 5842 5846 5847 5850 5855 5855 5857 5857 5857 5859 5860 5863 5864 5867 5868 5869 5869 5869 5870 5871